Regional Weather Roundup
Issued by NWS Kansas City/Pleasant Hill, MO

Home | Current Version | Previous Version | Text Only | Print | Product List | Glossary On
Versions: 1 2 3 4 5 6 7 8 9 10 11 12 13 14 15 16 17 18 19 20 21 22 23 24 25 26 27
000
ASUS43 KEAX 231510
RWREAX

WEATHER ROUNDUP FOR EASTERN KANSAS AND NORTHWEST MISSOURI
NATIONAL WEATHER SERVICE KANSAS CITY/PLEASANT HILL MO
1000 AM CDT THU MAR 23 2017

KSZ040-057-103>105-MOZ028-029-037-043-231600-
...KANSAS CITY METROPOLITAN AREA...

CITY           SKY/WX    TMP DP  RH WIND       PRES   REMARKS
K.C. INTL      PTSUNNY   56  37  49 S20       30.04F
K.C. DOWNTOWN  CLOUDY    56  36  47 S13       30.05F
LEES SUMMIT    PTSUNNY   56  36  47 S15       30.06F
OLATHE - IXD   MOSUNNY   55  38  52 S18       30.05S
OLATHE - OJC   PTSUNNY   54  38  54 S14       30.05F
LAWRENCE       PTSUNNY   59  41  51 SE18G24   30.03F

$$

MOZ001>008-011>017-020>025-030>033-038>040-044>046-053-054-231600-
...NORTHERN AND CENTRAL MISSOURI...

CITY           SKY/WX    TMP DP  RH WIND       PRES   REMARKS
ST. JOSEPH     PTSUNNY   55  35  47 SE16      30.03F
MOSBY          MOSUNNY   55  32  41 SE14      30.07F
WARRENSBURG    CLOUDY    55  32  41 SE14G22   30.09F
WHITEMAN AFB   PTSUNNY   57  31  37 S14G20    30.08F
CLINTON        PTSUNNY   57  36  44 S12       30.10F
SEDALIA        MOSUNNY   57  30  35 S15       30.12F
WARSAW         NOT AVBL
CHILLICOTHE      N/A     47  33  58 SE14G22   30.12F
KIRKSVILLE     CLOUDY    40  33  76 SE14G25   30.17F WCI  32

$$

MOZ041-047>049-056>058-063>065-088>090-097-231600-
...EASTERN AND SOUTHERN MISSOURI...

CITY           SKY/WX    TMP DP  RH WIND       PRES   REMARKS
ST. LOUIS INTL LGT RAIN  40  33  76 E15       30.30S WCI  32
SPIRIT OF STL  CLOUDY    39  34  82 E9        30.29S WCI  33
COLUMBIA       CLOUDY    46  33  60 SE15      30.16F
JEFFERSON CITY CLOUDY    50  30  46 SE15      30.18F
ROLLA          CLOUDY    50  25  37 S17G24    30.18F
OSAGE BEACH    SUNNY    N/A N/A N/A S17G23    30.16F
SPRINGFIELD    CLOUDY    54  32  43 S22G31    30.13S
BRANSON        PTSUNNY   50  32  50 SE9       30.20S
JOPLIN         MOSUNNY   60  43  53 S18G24    30.09S
WEST PLAINS    CLOUDY    50  28  42 S8        30.25S

$$

IAZ060-094-KSZ022-034>040-054-083-096-NEZ052-066-093-231600-
...KANSAS...SOUTHEAST NEBRASKA AND IOWA...

CITY           SKY/WX    TMP DP  RH WIND       PRES   REMARKS
TOPEKA         MOSUNNY   59  43  55 SE16G24   30.00F
MANHATTAN      MOSUNNY   62  51  67 S16G26    29.93F
EMPORIA        SUNNY     60  48  64 S23G32    29.97F
CHANUTE        MOSUNNY   61  45  55 S22G31    30.04F
WICHITA        CLOUDY    60  51  72 S23G35    29.93S
OMAHA          CLOUDY    50  34  54 SE17      29.95F
LINCOLN        CLOUDY    53  38  56 SE18G29   29.92F
FALLS CITY     CLOUDY    53  32  44 SE14G23   29.98F
LAMONI         LGT RAIN  43  34  70 SE12G23   30.08S
DES MOINES     CLOUDY    44  27  51 SE18      30.09F

$$





USA.gov is the U.S. government's official web portal to all federal, state and local government web resources and services.